Tracking 27422 objects as of 30-May-2023
HD Live streaming from Space Station
objects crossing your sky now

SXC3-214 (MIET-AIS)

Track SXC3-214 (MIET-AIS) now!
10-day predictions
SXC3-214 (MIET-AIS) is classified as:


NORAD ID: 53377
Int'l Code: 2022-096H
Perigee: 466.3 km
Apogee: 469.7 km
Inclination: 97.4 °
Period: 93.8 minutes
Semi major axis: 6839 km
RCS: Unknown
Launch date: August 9, 2022
Source: (TBD)
Launch site: TYURATAM MISSILE AND SPACE COMPLEX (TTMTR)

Uplink (MHz):
Downlink (MHz): 437.900
Beacon (MHz):
Mode: 2400bps GMSK USP
Call sign: RS28S
Status: Active

Your satellite tracking list
Your tracking list is empty




NASA's NSSDC Master Catalog

Two Line Element Set (TLE):
1 53377U 22096H   23150.41078124  .00015975  00000-0  47226-3 0  9993
2 53377  97.4165  56.1502 0002498 123.3999 236.7483 15.35009275 44937
Source of the keplerian elements: AFSPC